Rbgn^[z[y[W
メイン
   新天体発見情報
     Comet C/2019 J2 (Palomar)
投稿するにはまず登録を

スレッド表示 | 新しいものから 前のトピック | 次のトピック | 下へ
投稿者 スレッド
佐藤裕久
投稿日時: 2019-5-31 13:39
モデレータ
登録日: 2005-6-12
居住地: 日本
投稿: 2005
オンライン
Comet C/2019 J2 (Palomar)

Quan-zhi Ye (カリフォルニア工科大学)の通報によると、5月9.5日UT、Palomarにある1.2-m 
f/2.4 Oschin Schmidt望遠鏡のZTF Cameraで得たCCD画像から彗星を発見した。
この彗星は、相当集光しており、p.a. 約270°に向かって約10"〜15"の扇型の尾がある。
小惑星センターのPCCP webpageに公表後、Yeは、4月27.5日UT、発見前のPalomarイメージが
あるのを見つけた。r光度は17.8等。p.a. 270°に向かって12"の尾が存在した。
他に、 K. SarneczkyとB. Cseh (Konkoly天文台, 0.60-m Schmidt望遠鏡, Piszkesteto,
ハンガリー; 5月11日、60秒露出6枚のスタック、フィルターなしのCCDイメージで、8"〜10"の
拡散したコマと、p.a. 290°に約14"〜16"伸びた非常にかすかな尾がある)らCCD位置観測者に
よって彗星状と観測された。

発見位置は次のとおり、

     2019 UT             R.A. (2000) Decl.       Mag.   Observer
     May   9.47377    0 11 51.95   +45 12 43.6   16.8   Ye
           9.47713    0 11 52.04   +45 12 49.9   17.1    "
           9.48047    0 11 52.11   +45 12 56.6   17.2    "
           9.48577    0 11 52.21   +45 13 06.6   16.9    "

暫定楕円軌道要素と位置推算表は次のとおり、

Orbital elements:
    C/2019 J2 (Palomar)
Epoch 2019 July 16.0 TT = JDT 2458680.5
T 2019 July 20.26852 TT                                 MPCW
q   1.7157423            (2000.0)            P               Q
z  +0.0215551      Peri.   99.25975     -0.03144802     -0.90761293
 +/-0.0000000      Node    25.73049     -0.65875595     -0.29617294
e   0.9630169      Incl.  105.36142     +0.75169916     -0.29752370
From 51 observations 2019 Apr. 27-May 12, mean residual 0".5.

    C/2019 J2 (Palomar)
Epoch 2019 Apr. 27.0 TT = JDT 2458600.5
T 2019 July 20.26568 TT                                 MPCW
q   1.7157555            (2000.0)            P               Q
z  +0.0215604      Peri.   99.25793     -0.03141623     -0.90761210
 +/-0.0000000      Node    25.73079     -0.65874892     -0.29619789
e   0.9630077      Incl.  105.36160     +0.75170665     -0.29750141
From 51 observations 2019 Apr. 27-May 12, mean residual 0".5.

Ephemeris:
    C/2019 J2 (Palomar)
Date    TT    R. A. (2000) Decl.     Delta      r     Elong.  Phase   m1
2019 04 13    23 59 15.8 +34 05 32   2.9018  2.1174    31.9    14.5  18.6
...
2019 04 28    00 06 42.5 +39 50 52   2.6965  2.0152    38.9    18.3  18.2
...
2019 05 06    00 10 23.2 +43 29 09   2.5732  1.9651    43.3    20.6  18.0
...
2019 05 12    00 12 52.2 +46 31 42   2.4766  1.9297    46.7    22.4  17.8
2019 05 13    00 13 15.1 +47 03 51   2.4603  1.9240    47.3    22.7  17.8
2019 05 14    00 13 37.4 +47 36 30   2.4439  1.9184    47.9    23.0  17.8
...
2019 05 20    00 15 35.3 +51 03 57   2.3450  1.8859    51.3    24.8  17.6
...
2019 05 28    00 17 12.1 +56 14 06   2.2140  1.8464    55.8    27.0  17.4
...
2019 06 12    00 12 45.9 +67 54 18   1.9868  1.7848    63.6    30.6  17.0

     This object was reported as a comet by Q.-Z. Ye (I41, May 9), who
described it as having a fan-shape 10"-15" tail towards P.A. ~270.
K. Sarneczky and B. Cseh (K88, May 11) reported a diffuse 8"-10" coma and a
very faint 14"-16" tail in P.A. 290.  S. Gajdos (118, May 11) noted a
condensed 8"x10" coma, elongated in P.A. 290-300.  Other reports follow:

Date    OC   Reporter     Coma + comments
Apr 27  I41  Q.-Z. Ye     No comment, tail 12" in P.A. 270
May 11  G40  M. Suzuki    19"

(CBET 4626、MPEC 2019-J123)

スレッド表示 | 新しいものから 前のトピック | 次のトピック | トップ

投稿するにはまず登録を
 
© 1999 Tsutomu Seki.